TimeMDT,TemperatureF,Dew PointF,Humidity,Sea Level PressureIn,VisibilityMPH,Wind Direction,Wind SpeedMPH,Gust SpeedMPH,PrecipitationIn,Events,Conditions,WindDirDegrees,DateUTC
5:00 AM,53.6,53.6,100,30.15,2.5,ENE,8.1,-,N/A,,Overcast,70,2013-08-08 11:00:00
5:40 AM,53.6,53.6,100,30.15,2.0,East,6.9,-,N/A,Rain,Light Rain Showers,80,2013-08-08 11:40:00
6:00 AM,53,53,99,30.16,2,East,8.1,,,Rain,Light Rain,90,2013-08-08 12:00:00
6:00 AM,53.6,53.6,100,30.16,2.0,East,6.9,-,N/A,Rain,Light Rain,80,2013-08-08 12:00:00
7:00 AM,51.8,51.8,100,30.18,2.0,East,9.2,-,N/A,Rain,Light Rain,90,2013-08-08 13:00:00
7:26 AM,51.8,51.8,100,30.19,2.5,East,5.8,-,N/A,,Overcast,100,2013-08-08 13:26:00
7:36 AM,51.8,51.8,100,30.19,2.5,ESE,8.1,-,N/A,,Light Drizzle,110,2013-08-08 13:36:00
8:00 AM,51.8,51.8,100,30.21,2.5,East,6.9,-,N/A,,Light Drizzle,100,2013-08-08 14:00:00
9:00 AM,51.8,51.8,100,30.21,2.5,SE,8.1,-,N/A,,Light Drizzle,140,2013-08-08 15:00:00
10:00 AM,51.8,51.8,100,30.22,2.5,SE,9.2,-,N/A,,Overcast,130,2013-08-08 16:00:00
11:00 AM,51.8,51.8,100,30.22,2.0,ESE,10.4,-,N/A,,Overcast,120,2013-08-08 17:00:00
11:38 AM,51.8,51.8,100,30.24,2.0,SE,8.1,-,N/A,,Light Drizzle,140,2013-08-08 17:38:00
12:00 PM,53.6,51.8,94,30.24,3.0,SE,8.1,-,N/A,,Light Drizzle,140,2013-08-08 18:00:00
1:00 PM,53.6,51.8,94,30.23,4.0,ESE,10.4,-,N/A,,Overcast,120,2013-08-08 19:00:00
1:04 PM,53.6,51.8,94,30.23,4.0,SE,9.2,-,N/A,,Overcast,130,2013-08-08 19:04:00
1:12 PM,53.6,53.6,100,30.23,4.0,SE,9.2,-,N/A,Rain,Light Rain,130,2013-08-08 19:12:00
2:00 PM,55.4,53.6,94,30.24,5.0,SE,8.1,-,N/A,,Overcast,140,2013-08-08 20:00:00
3:00 PM,55.4,51.8,88,30.23,5.0,SSE,9.2,-,N/A,,Overcast,150,2013-08-08 21:00:00
4:00 PM,57.2,53.6,88,30.23,6.0,SE,10.4,-,N/A,,Overcast,130,2013-08-08 22:00:00
5:00 PM,57.2,53.6,88,30.25,6.0,SSE,6.9,-,N/A,,Overcast,150,2013-08-08 23:00:00
6:00 PM,55,53,88,30.25,6,SE,10.4,,,,Partly Cloudy,140,2013-08-09 00:00:00
6:00 PM,55.4,51.8,88,30.25,6.0,SSE,11.5,-,N/A,,Overcast,150,2013-08-09 00:00:00
6:28 PM,57.2,53.6,88,30.25,6.0,SE,8.1,-,N/A,Rain,Light Rain,140,2013-08-09 00:28:00
7:00 PM,55.4,53.6,94,30.25,8.0,ESE,8.1,-,N/A,,Overcast,120,2013-08-09 01:00:00
8:00 PM,55.4,53.6,94,30.26,5.0,East,5.8,-,N/A,,Overcast,100,2013-08-09 02:00:00
8:29 PM,55.4,53.6,94,30.28,5.0,East,5.8,-,N/A,Rain,Light Rain,100,2013-08-09 02:29:00
9:00 PM,53.6,53.6,100,30.28,4.0,ESE,8.1,-,N/A,Rain,Light Rain,110,2013-08-09 03:00:00
10:00 PM,53.6,53.6,100,30.23,5.0,SSE,8.1,-,N/A,,Overcast,160,2013-08-09 04:00:00